Rexburg, ID

9:09 AM MST on November 20, 2017 (GMT -0700)
Rexburg-Madison County

Weather History for KRXE - February, 2013

Change the Weather History Date:

Friday, February 8, 2013

  Actual Average Record
Temperature  
Mean Temperature 29 °F 20 °F  
Max Temperature 39 °F 30 °F 53 °F (2015)
Min Temperature 19 °F 11 °F -17 °F (2001)
Degree Days  
Heating Degree Days 36 45  
Month to date heating degree days 311 360  
Since 1 July heating degree days 4797 5137  
Cooling Degree Days 0 0  
Month to date cooling degree days 0 0  
Year to date cooling degree days 0 0  
Moisture  
Dew Point 20 °F    
Average Humidity 68    
Maximum Humidity 77    
Minimum Humidity 59    
Precipitation  
Precipitation 0.00 in 0.03 in 0.30 in (1978)
Month to date precipitation T 0.24  
Year to date precipitation 1.13 0.98  
Sea Level Pressure  
Sea Level Pressure 29.86 in    
Wind  
Wind Speed 6 mph (NE)    
Max Wind Speed 12 mph    
Max Gust Speed 17 mph    
Visibility 10 miles    
Events      
T = Trace of Precipitation, MM = Missing Value Source: NWS Daily Summary

Daily Weather History Graph

Daily Weather History Graph

Search for Another Location

Airport or City:

Trip Planner

Search our weather history database for the weather conditions in past years. The results will help you decide how hot, cold, wet, or windy it might be!

Date:

Astronomy

Feb. 08, 2013 Rise Set
Actual Time 7:35 AM MST 5:48 PM MST
Civil Twilight 7:05 AM MST 6:18 PM MST
Nautical Twilight 6:31 AM MST 6:52 PM MST
Astronomical Twilight 5:57 AM MST 7:25 PM MST
Moon 6:08 AM MST (2/8) 4:24 PM MST (2/8)
Length of Visible Light 11h 12m
Length of Day
10h 12m
Waning Crescent, 3% of the Moon is Illuminated
Feb 8
Waning Crescent
Feb 10
New
Feb 17
First Quarter
Feb 25
Full
Mar 4
Last Quarter

Hourly Weather History & Observations

Time (MST) Temp. Windchill Dew Point Humidity Pressure Visibility Wind Dir Wind Speed Gust Speed Precip Events Conditions
12:53 AM 19.0 °F 13.9 °F 12.9 °F 77% 30.01 in 10.0 mi NNE 3.5 mph - N/A   Clear
1:53 AM 19.0 °F 12.3 °F 14.0 °F 81% 29.98 in 10.0 mi ENE 4.6 mph - N/A   Partly Cloudy
2:53 AM 21.0 °F 14.6 °F 14.0 °F 74% 29.96 in 10.0 mi NNE 4.6 mph - N/A   Overcast
3:53 AM 21.9 °F 14.5 °F 14.0 °F 72% 29.95 in 10.0 mi ENE 5.8 mph - N/A   Overcast
4:53 AM 23.0 °F 17.0 °F 14.0 °F 68% 29.94 in 10.0 mi NNE 4.6 mph - N/A   Overcast
5:53 AM 21.9 °F 17.2 °F 15.1 °F 75% 29.95 in 10.0 mi East 3.5 mph - N/A   Overcast
6:53 AM 25.0 °F 17.1 °F 15.1 °F 66% 29.93 in 10.0 mi NE 6.9 mph - N/A   Overcast
7:53 AM 27.0 °F 18.7 °F 16.0 °F 63% 29.92 in 10.0 mi ENE 8.1 mph - N/A   Overcast
8:53 AM 27.0 °F 17.3 °F 17.1 °F 66% 29.91 in 10.0 mi NE 10.4 mph - N/A   Clear
9:53 AM 30.0 °F 22.4 °F 19.9 °F 66% 29.89 in 10.0 mi NE 8.1 mph - N/A   Clear
10:53 AM 33.1 °F 25.5 °F 21.9 °F 64% 29.88 in 10.0 mi ENE 9.2 mph - N/A   Clear
11:53 AM 36.0 °F 29.0 °F 23.0 °F 59% 29.85 in 10.0 mi NE 9.2 mph - N/A   Mostly Cloudy
12:53 PM 36.0 °F 32.1 °F 24.1 °F 62% 29.82 in 10.0 mi East 4.6 mph - N/A   Overcast
1:53 PM 37.9 °F - 24.1 °F 57% 29.79 in 10.0 mi Calm Calm - N/A   Overcast
2:53 PM 37.0 °F - 24.1 °F 59% 29.78 in 10.0 mi Calm Calm - N/A   Mostly Cloudy
3:53 PM 36.0 °F 32.1 °F 24.1 °F 62% 29.80 in 10.0 mi South 4.6 mph - N/A   Overcast
4:53 PM 33.1 °F 27.7 °F 26.1 °F 75% 29.79 in 10.0 mi SSW 5.8 mph - N/A   Overcast
5:53 PM 33.1 °F - 26.1 °F 75% 29.79 in 10.0 mi Calm Calm - N/A   Overcast
6:53 PM 33.1 °F 24.4 °F 21.9 °F 64% 29.79 in 10.0 mi NNE 11.5 mph - N/A   Overcast
7:53 PM 32.0 °F 25.6 °F 24.1 °F 73% 29.78 in 10.0 mi NNE 6.9 mph - N/A   Overcast
8:53 PM 30.9 °F 24.3 °F 21.9 °F 69% 29.78 in 10.0 mi North 6.9 mph - N/A   Mostly Cloudy
9:53 PM 28.9 °F 21.9 °F 19.9 °F 69% 29.77 in 10.0 mi NNE 6.9 mph - N/A   Mostly Cloudy
10:53 PM 27.0 °F 20.5 °F 19.0 °F 72% 29.75 in 10.0 mi East 5.8 mph - N/A   Clear
11:53 PM 27.0 °F 21.6 °F 17.1 °F 66% 29.74 in 10.0 mi NE 4.6 mph - N/A   Clear